{"data":{"norad_id":63637,"intl_designator":"2025-083D","name":"STARLINK-33832","alt_names":[],"object_type":"PAYLOAD","status":"ACTIVE","operator":null,"country":"US","launch_date":"2025-04-25","launch_site_code":"AFETR","launch_vehicle":null,"mission":null,"orbit_class":"UNKNOWN","rcs_meters":null,"size_class":null,"mass_kg":null,"dimensions":null,"purposes":["comms"],"wikipedia_slug":null,"has_3d_model":false,"image_url":null,"decayed_at":null,"tle_current":{"epoch":"2026-05-24T21:14:55.002048Z","epoch_age_seconds":88962,"freshness":"FRESH","line1":"1 63637U 25083D   26144.88535882  .00023189  00000+0  84861-3 0  9999","line2":"2 63637  43.0015 294.5907 0001754 283.6104  76.4552 15.27615688 61721","mean_motion":15.27615688,"eccentricity":0.0001754,"inclination_deg":43.0015,"raan_deg":294.5907,"arg_perigee_deg":283.6104,"mean_anomaly_deg":76.4552,"bstar":0.00084861,"rev_number":6172,"period_min":94.2645464636,"perigee_km":481.73880211151,"apogee_km":484.14566870729,"semimajor_km":6861.0792354094,"source":"CELESTRAK","updated_at":"2026-05-25T13:38:20.052373Z"}}}